This is the latest recevied weather packets stored in our database for station/object DN9EM-1. If no packets are shown the sender has not sent any weather packets the latest 10 day(s).
| Time | Temp. | Humidity | Pressure | Rain* | Wind** | Luminosity | Snow |
|---|---|---|---|---|---|---|---|
| 1777751140 | 16.67° C | 67% | 1016.7 hPa | 0 mm | - | - | - |
| 1777750537 | 17.22° C | 65% | 1016.6 hPa | 0 mm | - | - | - |
| 1777749935 | 17.22° C | 64% | 1016.6 hPa | 0 mm | - | - | - |
| 1777749332 | 17.22° C | 63% | 1016.6 hPa | 0 mm | - | - | - |
| 1777748730 | 17.78° C | 62% | 1016.6 hPa | 0 mm | - | - | - |
| 1777748127 | 17.78° C | 60% | 1016.6 hPa | 0 mm | - | - | - |
| 1777747525 | 18.33° C | 59% | 1016.6 hPa | 0 mm | - | - | - |
| 1777746922 | 18.33° C | 57% | 1016.5 hPa | 0 mm | - | - | - |
| 1777746319 | 18.89° C | 55% | 1016.6 hPa | 0 mm | - | - | - |
| 1777745717 | 18.89° C | 54% | 1016.4 hPa | 0 mm | - | - | - |
| 1777745175 | 19.44° C | 53% | 1016.5 hPa | 0 mm | - | - | - |
| 1777744572 | 19.44° C | 53% | 1016.3 hPa | 0 mm | - | - | - |
| 1777743970 | 20° C | 53% | 1016.2 hPa | 0 mm | - | - | - |
| 1777743372 | 20.56° C | 51% | 1016.1 hPa | 0 mm | - | - | - |
| 1777742764 | 21.67° C | 50% | 1016.1 hPa | 0 mm | - | - | - |
| 1777742162 | 22.78° C | 49% | 1015.9 hPa | 0 mm | - | - | - |
| 1777741559 | 23.89° C | 44% | 1015.9 hPa | 0 mm | - | - | - |
| 1777740957 | 25° C | 43% | 1015.6 hPa | 0 mm | - | - | - |
| 1777740354 | 25.56° C | 41% | 1015.7 hPa | 0 mm | - | - | - |
| 1777739751 | 25.56° C | 41% | 1015.9 hPa | 0 mm | - | - | - |
| 1777739149 | 25.56° C | 40% | 1015.9 hPa | 0 mm | - | - | - |
| 1777738546 | 26.11° C | 39% | 1016 hPa | 0 mm | - | - | - |
| 1777737944 | 26.11° C | 38% | 1016.1 hPa | 0 mm | - | - | - |
| 1777737341 | 26.11° C | 38% | 1016.1 hPa | 0 mm | - | - | - |
| 1777736738 | 26.11° C | 39% | 1016.2 hPa | 0 mm | - | - | - |
* Rain latest hour (hover to see other rain measurements)
** Current wind speed in m/s (hover to see current wind gust speed)